Strait of Georgia - north of Nanaimo: Past 24 Hour Conditions

 

Point Atkinson

09:00 AM PDT 20 August 2014
This table is a summary of hourly weather conditions for the past 24 hours.
Date / Time
(PDT)
Wind(knots) Conditions Visibility(km) Pressure(kPa) Air tempC) Relative humidity(%) Dew pointC) Humidex
20 August 2014
9:00 E 15 N/A N/A 101.4 17 76 13 *
8:00 E 15 N/A N/A 101.3 17 78 13 *
7:00 E 13 N/A N/A 101.3 17 79 13 *
6:00 ESE 15 N/A N/A 101.2 16 82 13 *
5:00 E 16 N/A N/A 101.1 17 82 13 *
4:00 E 14 N/A N/A 101.1 17 81 14 *
3:00 E 10 N/A N/A 101.1 18 81 15 *
2:00 E 12 N/A N/A 101.0 19 83 16 *
1:00 E 6 N/A N/A 101.0 18 83 15 *
0:00 ENE 3 N/A N/A 100.9 19 80 16 *
19 August 2014
23:00 ENE 4 N/A N/A 100.9 20 80 16 *
22:00 ENE 3 N/A N/A 100.9 20 72 14 *
21:00 NW 2 N/A N/A 100.9 20 76 16 *
20:00 W 4 N/A N/A 100.9 21 79 17 26
19:00 W 6 N/A N/A 100.9 21 70 15 25
18:00 W 6 N/A N/A 100.9 21 72 16 26
17:00 WNW 5 N/A N/A 101.0 21 74 16 26
16:00 WNW 3 N/A N/A 101.0 21 73 16 26
15:00 WNW 3 N/A N/A 101.0 20 74 15 25
14:00 SW 5 N/A N/A 101.1 20 76 15 *
13:00 SSW 3 N/A N/A 101.1 20 77 16 *
12:00 WSW 4 N/A N/A 101.1 19 83 16 *
11:00 SW 4 N/A N/A 101.1 19 80 16 *
10:00 S 2 N/A N/A 101.1 20 80 17 25
9:00 ESE 3 N/A N/A 101.1 20 80 16 *
 
Map of Pacific - South Coast marine weather areas Tsawwassen Ferry Terminal South Nomad - 46036 Sentry Shoal - 46131 South Brooks - 46132 Halibut Bank - 46146 South Moresby - 46147 South Hecate Strait - 46185 West Sea Otter - 46204 La Perouse Bank - 46206 East Dellwood - 46207 Discovery Island Esquimalt Harbour Kelp Reefs Malahat Race Rocks Lightstation Saturna Island Sheringham Point University of Victoria Victoria Gonzales Victoria Int'l Airport Ballenas Islands Campbell River Airport Comox Airport Entrance Island Fanny Island Nanaimo Airport Port Hardy Airport Sisters Islets Estevan Point Sartine Island Solander Island Tofino Airport Grief Point Powell River Airport Sechelt Cape St.James Bella Bella Airport Bella Coola Airport Cathedral Point Herbert Island Point Atkinson Sand Heads Lightstation Vancouver Harbour Vancouver Int'l Airport West Vancouver Port Alberni Howe Sound - Pam Rocks Squamish Airport